Winston-Salem, NC

5:09 AM EDT on April 30, 2017 (GMT -0400)
Smith Reynolds

Weather History for KINT - October, 2013

Change the Weather History Date:

Sunday, October 20, 2013

  Actual Average Record
Temperature  
Mean Temperature 54 °F -  
Max Temperature 64 °F 66 °F 84 °F (1984)
Min Temperature 44 °F 46 °F 24 °F (1981)
Degree Days  
Heating Degree Days 12    
Growing Degree Days 4 (Base 50)    
Moisture  
Dew Point 38 °F    
Average Humidity 62    
Maximum Humidity 100    
Minimum Humidity 30    
Precipitation  
Precipitation 0.01 in - - ()
Sea Level Pressure  
Sea Level Pressure 30.05 in    
Wind  
Wind Speed 6 mph (North)    
Max Wind Speed 14 mph    
Max Gust Speed 16 mph    
Visibility 10 miles    
Events      
Averages and records for this station are not official NWS values.
T = Trace of Precipitation, MM = Missing Value Source: NWS Daily Summary

Daily Weather History Graph

Daily Weather History Graph

Search for Another Location

Airport or City:

Trip Planner

Search our weather history database for the weather conditions in past years. The results will help you decide how hot, cold, wet, or windy it might be!

Date:

Astronomy

Oct. 20, 2013 Rise Set
Actual Time 7:32 AM EDT 6:38 PM EDT
Civil Twilight 7:06 AM EDT 7:04 PM EDT
Nautical Twilight 6:36 AM EDT 7:34 PM EDT
Astronomical Twilight 6:06 AM EDT 8:03 PM EDT
Moon 7:49 PM EDT (10/20) 9:05 AM EDT (10/20)
Length of Visible Light 11h 57m
Length of Day
11h 05m
Full, 97% of the Moon is Illuminated
Oct 20
Full
Oct 26
Last Quarter
Nov 3
New
Nov 10
First Quarter
Nov 17
Full

Hourly Weather History & Observations

Time (EDT) Temp. Windchill Dew Point Humidity Pressure Visibility Wind Dir Wind Speed Gust Speed Precip Events Conditions
12:11 AM 53.6 °F - 53.6 °F 100% 29.95 in 5.0 mi NW 6.9 mph - N/A   Scattered Clouds
12:54 AM 53.1 °F - 51.1 °F 93% 29.94 in 9.0 mi NNW 5.8 mph - 0.01 in   Clear
1:54 AM 52.0 °F - 48.0 °F 86% 29.96 in 10.0 mi NNW 5.8 mph - N/A   Clear
2:54 AM 51.1 °F - 45.0 °F 80% 29.97 in 10.0 mi NNW 9.2 mph - N/A   Clear
3:54 AM 50.0 °F - 42.1 °F 74% 29.97 in 10.0 mi NNW 13.8 mph - N/A   Clear
4:54 AM 48.9 °F - 39.9 °F 71% 29.98 in 10.0 mi NNW 12.7 mph - N/A   Clear
5:54 AM 46.9 °F - 37.9 °F 71% 30.00 in 10.0 mi NNW 8.1 mph - N/A   Clear
6:54 AM 46.0 °F 41.9 °F 36.0 °F 68% 30.02 in 10.0 mi North 8.1 mph - N/A   Clear
7:54 AM 46.0 °F 41.4 °F 35.1 °F 66% 30.05 in 10.0 mi North 9.2 mph - N/A   Clear
8:54 AM 48.9 °F - 37.0 °F 64% 30.07 in 10.0 mi NNE 4.6 mph - N/A   Clear
9:54 AM 51.1 °F - 35.1 °F 54% 30.09 in 10.0 mi NNE 6.9 mph - N/A   Clear
10:54 AM 53.1 °F - 35.1 °F 50% 30.11 in 10.0 mi Variable 6.9 mph 16.1 mph N/A   Clear
11:54 AM 57.0 °F - 36.0 °F 45% 30.11 in 10.0 mi NNE 9.2 mph - N/A   Clear
12:54 PM 57.9 °F - 34.0 °F 41% 30.10 in 10.0 mi East 4.6 mph - N/A   Clear
1:54 PM 60.1 °F - 33.1 °F 36% 30.07 in 10.0 mi NE 5.8 mph - N/A   Clear
2:54 PM 62.1 °F - 32.0 °F 32% 30.05 in 10.0 mi East 5.8 mph - N/A   Clear
3:54 PM 62.1 °F - 32.0 °F 32% 30.05 in 10.0 mi ESE 5.8 mph - N/A   Clear
4:54 PM 62.1 °F - 30.0 °F 30% 30.05 in 10.0 mi Calm Calm - N/A   Clear
5:54 PM 62.1 °F - 32.0 °F 32% 30.06 in 10.0 mi Calm Calm - N/A   Clear
6:54 PM 55.0 °F - 39.9 °F 57% 30.07 in 10.0 mi Calm Calm - N/A   Clear
7:54 PM 50.0 °F - 39.9 °F 68% 30.09 in 10.0 mi Calm Calm - N/A   Clear
8:54 PM 48.0 °F - 39.0 °F 71% 30.11 in 10.0 mi Calm Calm - N/A   Clear
9:54 PM 46.9 °F - 37.9 °F 71% 30.12 in 10.0 mi Calm Calm - N/A   Clear
10:54 PM 45.0 °F - 37.0 °F 74% 30.13 in 10.0 mi Calm Calm - N/A   Clear
11:54 PM 44.1 °F - 37.0 °F 76% 30.13 in 10.0 mi Calm Calm - N/A   Clear